Simultaneous Nadir Overpasses (SNOs) Predictions

Prediction of SNOs between METOP-C and LANDSAT-8 Satellite Orbit:

Table of predicted SNOs for the next 14.0 days since TLE Epoch: 3/28/2020
Index Date (METOP-C) Time (METOP-C) Lat,Lon (METOP-C) SZA (METOP-C ) Date (LANDSAT-8) Time (LANDSAT-8) Lat,Lon (LANDSAT-8) SZA (LANDSAT-8 ) Distance(km) Time Diff (sec)
1 03/28/2020 20:48:00 81.06, -93.68 79.43 03/28/2020 20:48:28 81.05, -93.80 79.42 2.37 28
2 03/28/2020 21:38:38 -81.09, 74.50 100.48 03/28/2020 21:37:53 -81.09, 74.50 100.50 0.52 45
3 03/31/2020 16:22:23 81.06, -27.11 78.38 03/31/2020 16:22:41 81.06, -27.21 78.38 1.75 18
4 03/31/2020 17:13:02 -81.08, 140.69 101.58 03/31/2020 17:12:07 -81.08, 140.76 101.59 1.33 55
5 04/03/2020 11:56:45 81.07, 39.43 77.35 04/03/2020 11:56:53 81.07, 39.35 77.34 1.46 8
6 04/03/2020 12:47:24 -81.08,-152.76 102.61 04/03/2020 12:46:19 -81.09,-152.65 102.62 2.04 65
7 04/06/2020 06:40:30 -81.02, -62.58 103.83 04/06/2020 06:41:42 -81.02, -62.45 103.79 2.30 72
8 04/06/2020 07:31:08 81.07, 105.96 76.32 04/06/2020 07:31:06 81.07, 105.88 76.31 1.47 2
9 04/06/2020 08:21:27 -81.29, -78.57 102.69 04/06/2020 08:20:13 -81.49, -78.91 102.62 23.44 74
10 04/09/2020 02:14:53 -81.03, 3.95 104.84 04/09/2020 02:15:55 -81.03, 4.08 104.80 2.21 62




NCC Satellite Simultaneous Nadir Overpasses (SNOs) Prediction Service
